Find STARLINK-37323

NORAD ID: 799500955 Int'l Des: 2026-132J Constellation: starlink operational

現在のビュー

3D地球を読み込み中...

About STARLINK-37323

STARLINK-37323 (NORAD 799500955) is a starlink constellation satellite launched Jun 8, 2026

STARLINK-37323について

説明を読み込み中...

次回通過

Passes for default location (London). Set your location on the main map for personalized predictions.

高度履歴

Loading altitude history...

軌道要素

1 99999C 2026132J 26163.64979167 .07216000 00000-0 668100-3 0 1631
2 99999 53.1626 346.6934 0010701 280.0137 96.5932 16.08009082 14
Epoch: Jun 12, 2026 • Age: 8 hours